• In Deutschland
  • Länderverzeichnis
  • Für 7 Tage
  • Wassertemperatur
  • Satellitenkarten
  • Wetterkarte
  • Widgets
  • user-avatar
    Anmelden

    Stündliche Wetter Kornwestheim

    Heute, 20 Februar, Dienstag

    Zeit Temperatur Niederschläge Wind Luftdruck Luftfeuchtigkeit
    00:00 -1°C° 0 mm 0 m/S 734 mmHg 86%
    01:00 -1°C° 0 mm 0 m/S 734 mmHg 86%
    02:00 -2°C° 0 mm 0 m/S 734 mmHg 86%
    03:00 -2°C° 0 mm 0 m/S 734 mmHg 87%
    04:00 -2°C° 0 mm 0 m/S 733 mmHg 87%
    05:00 -2°C° 0 mm 0 m/S 733 mmHg 87%
    06:00 -2°C° 0 mm 0 m/S 733 mmHg 88%
    07:00 -2°C° 0 mm 0 m/S 733 mmHg 88%
    08:00 0°C° 0 mm 1 m/S 734 mmHg 83%
    09:00 +1°C° 0 mm 1 m/S 734 mmHg 78%
    10:00 +2°C° 0 mm 1 m/S 734 mmHg 72%
    11:00 +3°C° 0 mm 1 m/S 734 mmHg 68%
    12:00 +3°C° 0 mm 1 m/S 734 mmHg 64%
    13:00 +3°C° 0 mm 2 m/S 734 mmHg 60%
    14:00 +3°C° 0 mm 2 m/S 734 mmHg 61%
    15:00 +3°C° 0 mm 2 m/S 734 mmHg 61%
    16:00 +3°C° 0 mm 2 m/S 734 mmHg 62%
    17:00 +2°C° 0 mm 2 m/S 734 mmHg 68%
    18:00 +1°C° 0 mm 2 m/S 734 mmHg 73%
    19:00 -1°C° 0 mm 2 m/S 734 mmHg 79%
    20:00 -1°C° 0 mm 2 m/S 735 mmHg 81%
    21:00 +1°C° 0 mm 1 m/S 735 mmHg 82%
    22:00 +1°C° 0 mm 1 m/S 735 mmHg 84%
    23:00 -2°C° 0 mm 2 m/S 735 mmHg 85%

    Morgen, 21 Februar, Mittwoch

    Zeit Temperatur Niederschläge Wind Luftdruck Luftfeuchtigkeit
    00:00 -2°C° 0 mm 2 m/S 736 mmHg 87%
    01:00 -2°C° 0 mm 2 m/S 736 mmHg 88%
    02:00 -3°C° 0 mm 2 m/S 736 mmHg 90%
    03:00 -3°C° 0 mm 2 m/S 736 mmHg 91%
    04:00 -3°C° 0 mm 2 m/S 736 mmHg 93%
    05:00 -3°C° 0 mm 2 m/S 736 mmHg 92%
    06:00 -3°C° 0 mm 2 m/S 736 mmHg 91%
    07:00 -3°C° 0 mm 2 m/S 736 mmHg 91%
    08:00 -2°C° 0 mm 2 m/S 737 mmHg 85%
    09:00 -2°C° 0 mm 3 m/S 737 mmHg 79%
    10:00 -1°C° 0 mm 3 m/S 737 mmHg 73%
    11:00 0°C° 0 mm 3 m/S 737 mmHg 69%
    12:00 +1°C° 0 mm 3 m/S 736 mmHg 64%
    13:00 +2°C° 0 mm 3 m/S 736 mmHg 59%
    14:00 +2°C° 0 mm 3 m/S 736 mmHg 58%
    15:00 +1°C° 0 mm 4 m/S 736 mmHg 57%
    16:00 +3°C° 0 mm 4 m/S 735 mmHg 57%
    17:00 +1°C° 0 mm 3 m/S 735 mmHg 62%
    18:00 0°C° 0 mm 3 m/S 735 mmHg 67%
    19:00 -1°C° 0 mm 3 m/S 735 mmHg 73%
    20:00 -2°C° 0 mm 3 m/S 735 mmHg 74%
    21:00 -2°C° 0 mm 3 m/S 735 mmHg 74%
    22:00 -2°C° 0 mm 3 m/S 735 mmHg 75%
    23:00 -2°C° 0 mm 3 m/S 735 mmHg 75%

    übermorgen, 22 Februar, Donnerstag

    Zeit Temperatur Niederschläge Wind Luftdruck Luftfeuchtigkeit
    00:00 -4°C° 0 mm 3 m/S 735 mmHg 76%
    01:00 -4°C° 0 mm 3 m/S 735 mmHg 76%
    02:00 -4°C° 0 mm 4 m/S 734 mmHg 75%
    03:00 -4°C° 0 mm 4 m/S 734 mmHg 75%
    04:00 -4°C° 0 mm 4 m/S 734 mmHg 74%
    05:00 -4°C° 0 mm 4 m/S 734 mmHg 73%
    06:00 -5°C° 0 mm 5 m/S 734 mmHg 72%
    07:00 -5°C° 0 mm 5 m/S 733 mmHg 71%
    08:00 -5°C° 0 mm 5 m/S 733 mmHg 68%
    09:00 -4°C° 0 mm 6 m/S 733 mmHg 65%
    10:00 -3°C° 0 mm 6 m/S 733 mmHg 62%
    11:00 -3°C° 0 mm 6 m/S 733 mmHg 59%
    12:00 -2°C° 0 mm 7 m/S 733 mmHg 57%
    13:00 -1°C° 0 mm 7 m/S 733 mmHg 54%
    14:00 -1°C° 0 mm 7 m/S 733 mmHg 54%
    15:00 -1°C° 0 mm 6 m/S 732 mmHg 55%
    16:00 -1°C° 0 mm 6 m/S 732 mmHg 55%
    17:00 -2°C° 0 mm 6 m/S 732 mmHg 58%
    18:00 -2°C° 0 mm 6 m/S 733 mmHg 61%
    19:00 -3°C° 0 mm 6 m/S 733 mmHg 64%
    20:00 -3°C° 0 mm 6 m/S 733 mmHg 64%
    21:00 -4°C° 0 mm 6 m/S 733 mmHg 65%
    22:00 -4°C° 0 mm 6 m/S 733 mmHg 66%
    23:00 -4°C° 0 mm 6 m/S 733 mmHg 66%

    23 Februar, Freitag

    Zeit Temperatur Niederschläge Wind Luftdruck Luftfeuchtigkeit
    00:00 -5°C° 0 mm 6 m/S 733 mmHg 67%
    01:00 -5°C° 0 mm 5 m/S 732 mmHg 67%
    02:00 -5°C° 0 mm 5 m/S 732 mmHg 67%
    03:00 -5°C° 0 mm 5 m/S 732 mmHg 68%
    04:00 -5°C° 0 mm 5 m/S 732 mmHg 68%
    05:00 -5°C° 0 mm 5 m/S 732 mmHg 68%
    06:00 -5°C° 0 mm 5 m/S 732 mmHg 69%
    07:00 -5°C° 0 mm 5 m/S 733 mmHg 69%
    08:00 -5°C° 0 mm 5 m/S 733 mmHg 66%
    09:00 -4°C° 0 mm 6 m/S 733 mmHg 64%
    10:00 -3°C° 0 mm 6 m/S 733 mmHg 62%
    11:00 -2°C° 0 mm 6 m/S 734 mmHg 60%
    12:00 -1°C° 0 mm 6 m/S 734 mmHg 57%
    13:00 -1°C° 0 mm 6 m/S 734 mmHg 55%
    14:00 +1°C° 0 mm 6 m/S 734 mmHg 55%
    15:00 +1°C° 0 mm 6 m/S 734 mmHg 55%
    16:00 +1°C° 0 mm 6 m/S 734 mmHg 54%
    17:00 -1°C° 0 mm 6 m/S 734 mmHg 55%
    18:00 -2°C° 0 mm 6 m/S 734 mmHg 56%
    19:00 -3°C° 0 mm 6 m/S 735 mmHg 57%
    20:00 -4°C° 0 mm 6 m/S 735 mmHg 57%
    21:00 -4°C° 0 mm 6 m/S 735 mmHg 56%
    22:00 -5°C° 0 mm 6 m/S 736 mmHg 56%
    23:00 -5°C° 0 mm 6 m/S 736 mmHg 56%

    24 Februar, Samstag

    Zeit Temperatur Niederschläge Wind Luftdruck Luftfeuchtigkeit
    00:00 -6°C° 0 mm 6 m/S 736 mmHg 55%
    01:00 -6°C° 0 mm 6 m/S 737 mmHg 54%
    02:00 -6°C° 0 mm 6 m/S 737 mmHg 52%
    03:00 -6°C° 0 mm 6 m/S 737 mmHg 50%
    04:00 -8°C° 0 mm 6 m/S 737 mmHg 47%
    05:00 -8°C° 0 mm 6 m/S 738 mmHg 46%
    06:00 -8°C° 0 mm 6 m/S 738 mmHg 44%
    07:00 -8°C° 0 mm 6 m/S 739 mmHg 42%
    08:00 -8°C° 0 mm 6 m/S 739 mmHg 39%
    09:00 -6°C° 0 mm 6 m/S 740 mmHg 36%
    10:00 -5°C° 0 mm 6 m/S 740 mmHg 34%
    11:00 -4°C° 0 mm 6 m/S 740 mmHg 32%
    12:00 -3°C° 0 mm 6 m/S 740 mmHg 30%
    13:00 -3°C° 0 mm 6 m/S 740 mmHg 28%
    14:00 -3°C° 0 mm 6 m/S 740 mmHg 29%
    15:00 -3°C° 0 mm 6 m/S 740 mmHg 29%
    16:00 -3°C° 0 mm 6 m/S 740 mmHg 30%
    17:00 -4°C° 0 mm 6 m/S 740 mmHg 33%
    18:00 -4°C° 0 mm 5 m/S 740 mmHg 36%
    19:00 -5°C° 0 mm 5 m/S 740 mmHg 39%
    20:00 -6°C° 0 mm 5 m/S 740 mmHg 42%
    21:00 -6°C° 0 mm 5 m/S 740 mmHg 44%
    22:00 -7°C° 0 mm 5 m/S 740 mmHg 47%
    23:00 -7°C° 0 mm 5 m/S 740 mmHg 48%

    25 Februar, Sonntag

    Zeit Temperatur Niederschläge Wind Luftdruck Luftfeuchtigkeit
    00:00 -7°C° 0 mm 5 m/S 740 mmHg 49%
    01:00 -8°C° 0 mm 5 m/S 740 mmHg 50%
    02:00 -8°C° 0 mm 5 m/S 739 mmHg 51%
    03:00 -8°C° 0 mm 5 m/S 739 mmHg 51%
    04:00 -10°C° 0 mm 5 m/S 739 mmHg 52%
    05:00 -10°C° 0 mm 5 m/S 739 mmHg 54%
    06:00 -10°C° 0 mm 5 m/S 739 mmHg 57%
    07:00 -10°C° 0 mm 5 m/S 738 mmHg 59%
    08:00 -10°C° 0 mm 6 m/S 738 mmHg 55%
    09:00 -9°C° 0 mm 6 m/S 738 mmHg 51%
    10:00 -9°C° 0 mm 7 m/S 738 mmHg 48%
    11:00 -9°C° 0 mm 7 m/S 738 mmHg 44%
    12:00 -8°C° 0 mm 7 m/S 738 mmHg 40%
    13:00 -7°C° 0 mm 7 m/S 737 mmHg 36%
    14:00 -7°C° 0 mm 7 m/S 737 mmHg 34%
    15:00 -7°C° 0 mm 7 m/S 736 mmHg 33%
    16:00 -7°C° 0 mm 7 m/S 736 mmHg 32%
    17:00 -8°C° 0 mm 6 m/S 736 mmHg 35%
    18:00 -9°C° 0 mm 6 m/S 736 mmHg 37%
    19:00 -10°C° 0 mm 5 m/S 736 mmHg 40%
    20:00 -10°C° 0 mm 5 m/S 736 mmHg 41%
    21:00 -10°C° 0 mm 5 m/S 736 mmHg 43%
    22:00 -10°C° 0 mm 6 m/S 736 mmHg 45%
    23:00 -10°C° 0 mm 6 m/S 736 mmHg 47%
    Mehr zeigen